Location: Monroe
(41.9160°N, 83.3980°W)
Time: 13:23:33
(UTC-04:00)

Amateur Radio Satellites - All Passes

Search period start: 25 September 2016 12:53
Search period end: 26 September 2016 12:53
Location: Monroe, 41.9160°N, 83.3980°W

Satellite Date Start Highest point End Downlink Frequencies (MHz)
Time Altitude Azimuth
VELOX 1 25 Sep 12:55:40 12:59:34 30° 96° (E) 13:03:25 145.980
AIST 2 25 Sep 12:56:38 12:59:36 18° 43° (NE) 13:02:34 435.215
DX 1 25 Sep 12:58:03 13:01:16 20° 94° (E) 13:04:27 434.975-435.025
M-CUBED/EXP-1 PRIME 25 Sep 13:01:36 13:03:32 15° 99° (E) 13:05:29 437.505
CUBEBUG 1 25 Sep 13:07:22 13:11:38 53° 100° (E) 13:15:51 437.445
Gurwin Techsat 1B 25 Sep 13:23:31 13:26:54 17° 61° (ENE) 13:30:18 435.225
QB50P1 25 Sep 13:25:56 13:28:49 18° 267° (W) 13:31:44 145.935-145.965
DUCHIFAT 1 25 Sep 13:26:51 13:29:55 20° 266° (W) 13:33:00 145.980
POPSAT HIP 1 25 Sep 13:40:12 13:42:12 13° 269° (W) 13:44:12 437.405
BUGSAT 1 25 Sep 13:40:31 13:44:12 31° 263° (W) 13:47:53 437.445
PHONESAT 2.4 25 Sep 13:41:28 13:44:16 41° 165° (SSE) 13:47:05 2401.200-2431.200
JAS-2 25 Sep 13:45:44 13:51:20 33° 268° (W) 13:57:36 435.910
AISAT 25 Sep 13:47:46 13:52:09 69° 286° (WNW) 13:56:30 437.250
50 SAT 25 Sep 13:56:20 13:59:53 47° 287° (WNW) 14:03:24 437.505
TISAT 1 25 Sep 13:58:26 14:00:58 16° 92° (E) 14:03:29 437.305
AUBIESAT-1 25 Sep 14:00:05 14:03:24 76° 108° (ESE) 14:06:41 437.475
SPROUT 25 Sep 14:01:58 14:06:14 88° 282° (WNW) 14:10:29 437.525
YUBILEINY 25 Sep 14:05:50 14:13:09 29° 67° (ENE) 14:20:23 435.215
Cosmos 2491 25 Sep 14:06:54 14:09:31 12° 72° (ENE) 14:12:08 435.465 / 435.565
UKube-1 25 Sep 14:10:12 14:14:32 85° 288° (WNW) 14:18:50 .
AO-7 25 Sep 14:20:47 14:26:27 21° 50° (NE) 14:32:07 29.400- 29.500
ESTCUBE 1 25 Sep 14:21:08 14:24:14 18° 296° (WNW) 14:27:19 437.505/2401.250
PCSat 25 Sep 14:21:29 14:26:31 37° 52° (NE) 14:31:31 145.827
Oscar 19 25 Sep 14:26:03 14:31:13 66° 258° (WSW) 14:36:25 437.125/150
VELOX 1 25 Sep 14:32:17 14:35:54 25° 293° (WNW) 14:39:30 145.980
DX 1 25 Sep 14:33:33 14:37:34 37° 290° (WNW) 14:41:31 434.975-435.025
AIST 2 25 Sep 14:34:18 14:38:25 56° 241° (WSW) 14:42:31 435.215
M-CUBED/EXP-1 PRIME 25 Sep 14:35:21 14:38:11 27° 295° (WNW) 14:40:59 437.505
SWISSCUBE 25 Sep 14:44:24 14:45:57 11° 89° (E) 14:47:29 437.505
CUBEBUG 1 25 Sep 14:45:00 14:47:28 15° 297° (WNW) 14:49:56 437.445
Cosmos 2504 25 Sep 14:51:50 14:56:52 19° 65° (ENE) 15:02:02 435.465 / 435.565
BEESAT 25 Sep 14:56:51 14:59:22 14° 91° (E) 15:01:54 436.000
Gurwin Techsat 1B 25 Sep 15:01:01 15:06:18 67° 258° (WSW) 15:11:36 435.225
ITAMSAT 1 25 Sep 15:13:10 15:18:06 47° 70° (ENE) 15:23:04 435.822/435.867
PHONESAT 2.4 25 Sep 15:17:19 15:20:16 67° 182° (S) 15:23:14 2401.200-2431.200
TISAT 1 25 Sep 15:32:52 15:36:49 43° 288° (WNW) 15:40:45 437.305
Cosmos 2491 25 Sep 15:55:51 16:04:30 67° 93° (E) 16:13:14 435.465 / 435.565
YUBILEINY 25 Sep 16:02:00 16:10:33 64° 268° (W) 16:19:04 435.215
ITUPSAT 1 25 Sep 16:04:47 16:09:35 68° 102° (ESE) 16:14:22 437.325
PCSat 25 Sep 16:05:01 16:09:50 33° 250° (WSW) 16:14:38 145.827
AO-7 25 Sep 16:09:45 16:18:05 84° 70° (ENE) 16:26:26 29.400- 29.500
SO-50 25 Sep 16:10:50 16:15:04 31° 114° (ESE) 16:19:17 436.795
SWISSCUBE 25 Sep 16:19:27 16:24:17 76° 285° (WNW) 16:29:04 437.505
AIST 1 25 Sep 16:26:41 16:28:55 14° 69° (ENE) 16:31:08
BEESAT 25 Sep 16:32:50 16:37:34 63° 287° (WNW) 16:42:17 436.000
Cosmos 2504 25 Sep 16:43:40 16:51:03 81° 264° (W) 16:58:55 435.465 / 435.565
MOZHAYETS 4 25 Sep 16:46:32 16:50:44 33° 97° (E) 16:54:55
BRITE-PL 25 Sep 16:51:17 16:54:35 16° 61° (ENE) 16:57:51 437.365/2234.400
PHONESAT 2.4 25 Sep 16:53:29 16:56:14 35° 198° (SSW) 16:59:00 2401.200-2431.200
ITAMSAT 1 25 Sep 16:53:55 16:57:48 21° 267° (W) 17:01:42 435.822/435.867
KKS-1 25 Sep 17:31:39 17:36:03 62° 102° (ESE) 17:40:25 437.445
ITUPSAT 1 25 Sep 17:44:13 17:46:51 15° 299° (WNW) 17:49:29 437.325
HORYU 2 25 Sep 17:50:10 17:54:35 84° 74° (ENE) 17:59:01 437.375
SO-50 25 Sep 17:51:02 17:55:29 36° 312° (NW) 17:59:53 436.795
Cosmos 2491 25 Sep 17:54:48 18:02:02 28° 293° (WNW) 18:09:22 435.465 / 435.565
O/OREOS (USA 219) 25 Sep 17:58:39 18:03:00 40° 61° (ENE) 18:07:19 437.305
CUBESAT XI-V 25 Sep 17:59:06 18:03:02 26° 94° (E) 18:06:54 437.345
AIST 1 25 Sep 18:02:41 18:06:52 50° 266° (W) 18:10:59
YUBILEINY 25 Sep 18:03:52 18:05:26 11° 288° (WNW) 18:07:01 435.215
AO-7 25 Sep 18:05:59 18:11:45 20° 269° (W) 18:17:32 29.400- 29.500
STARS 25 Sep 18:12:48 18:17:11 83° 105° (ESE) 18:21:33 437.465
HO-68 25 Sep 18:17:26 18:18:24 10° 47° (NE) 18:19:22 435.675
MOZHAYETS 4 25 Sep 18:23:57 18:27:45 26° 293° (WNW) 18:31:32
NOAA 15 25 Sep 18:24:38 18:29:44 51° 70° (ENE) 18:34:53 137.62
BRITE-PL 25 Sep 18:26:37 18:32:20 83° 257° (WSW) 18:38:00 437.365/2234.400
LilacSat-2 25 Sep 18:29:37 18:33:04 35° 72° (ENE) 18:36:31 437.200
GOMX 1 25 Sep 18:30:20 18:35:35 51° 72° (ENE) 18:40:38 467.674
Cubesat XI-IV 25 Sep 18:31:11 18:36:14 46° 70° (ENE) 18:41:18 437.490
CUTE-I 25 Sep 18:32:12 18:37:15 48° 70° (ENE) 18:42:21 437.470
Cosmos 2504 25 Sep 18:40:04 18:43:16 13° 282° (WNW) 18:46:32 435.465 / 435.565
NOAA 18 25 Sep 18:50:26 18:55:48 59° 71° (ENE) 19:01:10 137.9125
CINEMA 3 25 Sep 19:03:23 19:04:58 12° 63° (ENE) 19:06:33 145.822/145.860
DOVE 4 25 Sep 19:05:40 19:10:33 49° 73° (ENE) 19:15:12 437.250
KKS-1 25 Sep 19:09:51 19:12:05 14° 298° (WNW) 19:14:20 437.445
RS-15 25 Sep 19:15:42 19:22:12 17° 95° (E) 19:28:52 29.354- 29.394
CUBESAT XI-V 25 Sep 19:36:13 19:40:25 33° 291° (WNW) 19:44:34 437.345
STRAND 1 25 Sep 19:36:28 19:38:45 13° 89° (E) 19:41:02 437.568
O/OREOS (USA 219) 25 Sep 19:38:42 19:42:07 21° 259° (W) 19:45:31 437.305
CUSAT 1 25 Sep 19:47:35 19:53:06 41° 88° (E) 19:59:52 437.405
COMPASS 1 25 Sep 19:48:09 19:49:31 11° 62° (ENE) 19:50:52 437.405
STARS 25 Sep 19:52:14 19:52:51 10° 300° (WNW) 19:53:29 437.465
HO-68 25 Sep 19:57:37 20:04:30 52° 67° (ENE) 20:11:23 435.675
Cosmos 2499 25 Sep 20:02:17 20:08:40 29° 70° (ENE) 20:15:22 435.465 / 435.565
CUTE 1.7 + AOD 2 25 Sep 20:02:36 20:06:23 33° 70° (ENE) 20:10:13 437.475
CANX-2 25 Sep 20:03:09 20:07:05 39° 71° (ENE) 20:11:03 2200.000
LilacSat-2 25 Sep 20:05:14 20:07:29 15° 268° (W) 20:09:46 437.200
NOAA 15 25 Sep 20:05:51 20:09:47 21° 267° (W) 20:13:44 137.62
SEEDS 25 Sep 20:09:11 20:12:45 27° 69° (ENE) 20:16:20 437.485
GOMX 1 25 Sep 20:09:48 20:13:51 21° 268° (W) 20:17:49 467.674
BRITE-PL 25 Sep 20:09:50 20:11:30 11° 274° (W) 20:13:10 437.365/2234.400
Cubesat XI-IV 25 Sep 20:12:24 20:16:31 23° 267° (W) 20:20:39 437.490
CUTE-I 25 Sep 20:13:30 20:17:32 22° 267° (W) 20:21:36 437.470
GONETS M04 25 Sep 20:23:31 20:32:03 49° 75° (ENE) 20:40:27
CUBEBUG 2 25 Sep 20:26:30 20:29:49 23° 68° (ENE) 20:33:06 437.445
NOAA 18 25 Sep 20:33:06 20:36:50 19° 268° (W) 20:40:35 137.9125
CINEMA 3 25 Sep 20:37:02 20:41:36 72° 259° (WSW) 20:45:58 145.822/145.860
AAUSAT CUBESAT 2 25 Sep 20:39:11 20:42:52 31° 70° (ENE) 20:46:34 437.432
DOVE 4 25 Sep 20:44:49 20:48:24 19° 267° (W) 20:51:55 437.250
FUNcube-1 25 Sep 20:45:54 20:48:09 14° 64° (ENE) 20:50:24 145.935
UWE-3 25 Sep 20:49:51 20:53:21 26° 69° (ENE) 20:56:49 435.000/436.395/437.385
DANDE 25 Sep 20:53:54 20:58:32 51° 92° (E) 21:04:45 436.750
STRAND 1 25 Sep 21:13:19 21:18:28 76° 286° (WNW) 21:23:37 437.568
COMPASS 1 25 Sep 21:20:20 21:24:29 68° 259° (W) 21:28:40 437.405
RS-15 25 Sep 21:20:50 21:32:19 74° 117° (ESE) 21:44:28 29.354- 29.394
ZACube-1 25 Sep 21:24:34 21:28:27 40° 72° (ENE) 21:32:19 437.345
Oscar 11 25 Sep 21:27:14 21:31:18 43° 72° (ENE) 21:35:24 145.826/435.025
CUSAT 1 25 Sep 21:29:35 21:35:10 36° 292° (WNW) 21:41:58 437.405
CUTE 1.7 + AOD 2 25 Sep 21:39:05 21:42:17 21° 267° (W) 21:45:32 437.475
CANX-2 25 Sep 21:40:11 21:43:05 18° 268° (W) 21:46:01 2200.000
ISS 25 Sep 21:40:59 21:43:54 31° 137° (SE) 21:46:50 145.825
SEEDS 25 Sep 21:44:55 21:48:24 25° 265° (W) 21:51:55 437.485
HO-68 25 Sep 21:46:15 21:52:26 31° 265° (W) 21:58:41 435.675
AO-85 25 Sep 21:51:15 21:55:47 30° 114° (ESE) 22:00:07 145.980
Cosmos 2499 25 Sep 21:54:49 22:02:04 56° 268° (W) 22:09:52 435.465 / 435.565
CUBEBUG 2 25 Sep 22:02:35 22:06:18 30° 263° (W) 22:10:00 437.445
HUMSAT D 25 Sep 22:07:42 22:10:57 23° 68° (ENE) 22:14:14 437.325/437.525
PRISM 25 Sep 22:08:20 22:12:16 41° 99° (E) 22:16:09 437.425
AAUSAT CUBESAT 2 25 Sep 22:15:10 22:18:22 21° 266° (W) 22:21:37 437.432
FUNcube-1 25 Sep 22:19:59 22:24:00 49° 261° (W) 22:28:02 145.935
DELFI C3 25 Sep 22:20:25 22:24:23 67° 74° (ENE) 22:28:22 145.870
GONETS M04 25 Sep 22:20:47 22:28:36 37° 275° (W) 22:36:21
UWE-3 25 Sep 22:26:18 22:29:46 25° 265° (W) 22:33:13 435.000/436.395/437.385
DANDE 25 Sep 22:37:51 22:41:57 23° 298° (WNW) 22:46:56 436.750
TIGRISAT 25 Sep 22:46:46 22:49:04 14° 91° (E) 22:51:23 435.000
STRAND 1 25 Sep 22:55:58 22:56:45 10° 303° (WNW) 22:57:33 437.568
ZACube-1 25 Sep 23:02:16 23:04:55 16° 268° (W) 23:07:35 437.345
Oscar 11 25 Sep 23:04:51 23:07:39 17° 268° (W) 23:10:26 145.826/435.025
AISAT 25 Sep 23:11:59 23:13:34 12° 61° (ENE) 23:15:09 437.250
ISS 25 Sep 23:17:19 23:20:21 35° 334° (NNW) 23:23:24 145.825
UNISAT 6 25 Sep 23:25:07 23:29:14 38° 98° (E) 23:33:24 437.425
AO-85 25 Sep 23:31:20 23:36:10 39° 309° (NW) 23:40:43 145.980
RS-15 25 Sep 23:34:57 23:45:54 41° 323° (NW) 23:57:20 29.354- 29.394
HUMSAT D 25 Sep 23:42:57 23:46:28 28° 264° (W) 23:50:00 437.325/437.525
ESTCUBE 1 25 Sep 23:43:00 23:47:18 44° 71° (ENE) 23:51:38 437.505/2401.250
PRISM 25 Sep 23:44:30 23:47:15 17° 295° (WNW) 23:49:58 437.425
M-CUBED/EXP-1 PRIME 25 Sep 23:47:11 23:50:45 28° 65° (ENE) 23:54:07 437.505
VELOX 1 25 Sep 23:53:13 23:57:03 29° 68° (ENE) 00:00:53 145.980
DX 1 25 Sep 23:54:06 23:57:14 19° 65° (ENE) 00:00:21 434.975-435.025
ANTELSAT 26 Sep 00:00:27 00:04:50 87° 283° (WNW) 00:09:19 437.575/2403.000
CUBEBUG 1 26 Sep 00:03:18 00:07:32 46° 72° (ENE) 00:11:46 437.445
NANOSAT C BR1 26 Sep 00:06:08 00:07:58 13° 91° (E) 00:09:48 145.865
TIGRISAT 26 Sep 00:21:47 00:26:03 54° 287° (WNW) 00:30:24 435.000
QB50P2 26 Sep 00:25:53 00:29:21 24° 95° (E) 00:32:47 145.880/145.840
POLYITAN 1 26 Sep 00:28:07 00:31:35 24° 95° (E) 00:35:01 437.675
50 SAT 26 Sep 00:32:49 00:36:25 73° 76° (ENE) 00:40:04 437.505
SO-50 26 Sep 00:41:40 00:45:47 31° 47° (NE) 00:49:47 436.795
AISAT 26 Sep 00:44:57 00:49:25 76° 258° (WSW) 00:53:53 437.250
AUBIESAT-1 26 Sep 00:45:39 00:49:49 78° 254° (WSW) 00:53:41 437.475
TISAT 1 26 Sep 00:51:11 00:53:14 13° 63° (ENE) 00:55:17 437.305
JAS-2 26 Sep 00:53:24 01:00:51 44° 96° (E) 01:08:01 435.910
SPROUT 26 Sep 00:55:23 00:59:37 72° 75° (ENE) 01:03:53 437.525
ISS 26 Sep 00:55:27 00:57:32 16° 354° (N) 00:59:39 145.825
UNISAT 6 26 Sep 01:02:28 01:05:42 20° 294° (WNW) 01:08:58 437.425
UKube-1 26 Sep 01:04:36 01:08:56 84° 76° (ENE) 01:13:18 .
QB50P1 26 Sep 01:08:32 01:12:45 69° 102° (ESE) 01:16:56 145.935-145.965
DUCHIFAT 1 26 Sep 01:09:06 01:13:14 61° 101° (E) 01:17:23 145.980
ESTCUBE 1 26 Sep 01:21:13 01:24:19 18° 268° (W) 01:27:25 437.505/2401.250
BUGSAT 1 26 Sep 01:21:34 01:25:13 32° 98° (E) 01:28:49 437.445
M-CUBED/EXP-1 PRIME 26 Sep 01:21:42 01:25:12 25° 258° (WSW) 01:28:32 437.505
POPSAT HIP 1 26 Sep 01:21:50 01:26:03 85° 284° (WNW) 01:30:16 437.405
DX 1 26 Sep 01:29:00 01:33:07 40° 261° (W) 01:37:17 434.975-435.025
VELOX 1 26 Sep 01:29:40 01:33:27 27° 264° (W) 01:37:16 145.980
BEESAT 3 26 Sep 01:38:52 01:41:47 20° 112° (ESE) 01:44:43 437.485
NANOSAT C BR1 26 Sep 01:39:56 01:44:02 55° 287° (WNW) 01:48:08 145.865
CUBEBUG 1 26 Sep 01:41:13 01:44:02 17° 268° (W) 01:46:52 437.445
SWISSCUBE 26 Sep 01:50:49 01:53:32 15° 61° (ENE) 01:56:16 437.505
RS-15 26 Sep 01:53:47 02:03:06 24° 357° (N) 02:12:33 29.354- 29.394
QB50P2 26 Sep 02:01:29 02:05:07 29° 291° (WNW) 02:08:45 145.880/145.840
BEESAT 26 Sep 02:03:30 02:06:42 18° 63° (ENE) 02:09:55 436.000
POLYITAN 1 26 Sep 02:03:44 02:07:21 29° 291° (WNW) 02:10:59 437.675
Cosmos 2491 26 Sep 02:06:08 02:13:59 34° 69° (ENE) 02:21:45 435.465 / 435.565
SO-50 26 Sep 02:22:11 02:26:13 32° 246° (WSW) 02:30:10 436.795
TISAT 1 26 Sep 02:24:16 02:28:24 57° 259° (W) 02:32:32 437.305
BEESAT 2 26 Sep 02:28:46 02:32:21 35° 116° (ESE) 02:36:00 435.950
ISS 26 Sep 02:32:31 02:34:58 19° 14° (NNE) 02:37:25 145.825
Oscar 19 26 Sep 02:37:23 02:42:17 42° 98° (E) 02:47:07 437.125/150
JAS-2 26 Sep 02:38:28 02:45:44 43° 295° (WNW) 02:52:49 435.910
DUCHIFAT 1 26 Sep 02:46:36 02:48:25 13° 298° (WNW) 02:50:15 145.980
QB50P1 26 Sep 02:46:37 02:47:56 11° 298° (WNW) 02:49:17 145.935-145.965
BUGSAT 1 26 Sep 02:57:26 03:00:23 20° 293° (WNW) 03:03:19 437.445
YUBILEINY 26 Sep 03:07:43 03:15:09 32° 84° (E) 03:22:34 435.215
ITUPSAT 1 26 Sep 03:11:39 03:16:24 81° 75° (ENE) 03:21:11 437.325
BEESAT 3 26 Sep 03:15:35 03:19:12 35° 309° (NW) 03:22:52 437.485
Gurwin Techsat 1B 26 Sep 03:16:53 03:22:02 48° 99° (E) 03:27:08 435.225
SWISSCUBE 26 Sep 03:26:05 03:30:48 64° 258° (WSW) 03:35:33 437.505
ITAMSAT 1 26 Sep 03:26:47 03:29:58 16° 91° (E) 03:33:08 435.822/435.867
Cosmos 2504 26 Sep 03:34:21 03:37:36 13° 78° (ENE) 03:40:48 435.465 / 435.565
BEESAT 26 Sep 03:39:27 03:44:04 52° 260° (W) 03:48:44 436.000
MOZHAYETS 4 26 Sep 03:48:42 03:52:46 33° 69° (ENE) 03:56:52
Cosmos 2491 26 Sep 04:02:39 04:11:12 56° 270° (W) 04:19:41 435.465 / 435.565
BEESAT 2 26 Sep 04:07:04 04:10:15 23° 314° (NW) 04:13:29 435.950
ISS 26 Sep 04:08:38 04:11:55 69° 33° (NNE) 04:15:12 145.825
RS-15 26 Sep 04:09:40 04:20:45 36° 32° (NNE) 04:31:43 29.354- 29.394
AO-7 26 Sep 04:11:48 04:18:33 27° 94° (E) 04:25:15 29.400- 29.500
Oscar 19 26 Sep 04:17:13 04:21:21 25° 295° (WNW) 04:25:26 437.125/150
KKS-1 26 Sep 04:29:42 04:34:04 59° 73° (ENE) 04:38:28 437.445
AIST 2 26 Sep 04:32:22 04:35:47 26° 114° (ESE) 04:39:16 435.215
ITUPSAT 1 26 Sep 04:54:00 04:54:49 10° 271° (W) 04:55:37 437.325
Gurwin Techsat 1B 26 Sep 04:57:31 05:01:39 23° 296° (WNW) 05:05:46 435.225
CUBESAT XI-V 26 Sep 05:02:40 05:06:35 27° 67° (ENE) 05:10:32 437.345
YUBILEINY 26 Sep 05:02:52 05:11:27 56° 283° (WNW) 05:20:04 435.215
PCSat 26 Sep 05:03:54 05:08:32 30° 109° (ESE) 05:13:11 145.827
ITAMSAT 1 26 Sep 05:04:41 05:09:52 63° 287° (WNW) 05:15:00 435.822/435.867
STARS 26 Sep 05:09:22 05:13:45 76° 75° (ENE) 05:18:08 437.465
Cosmos 2504 26 Sep 05:22:20 05:29:50 85° 97° (E) 05:37:03 435.465 / 435.565
MOZHAYETS 4 26 Sep 05:26:13 05:29:57 25° 266° (W) 05:33:43
HORYU 2 26 Sep 05:41:59 05:44:36 15° 92° (E) 05:47:11 437.375
ISS 26 Sep 05:46:11 05:48:02 14° 229° (SW) 05:49:53 145.825
DANDE 26 Sep 05:50:52 05:53:50 12° 54° (NE) 05:56:49 436.750
AO-7 26 Sep 06:03:40 06:11:53 68° 293° (WNW) 06:20:05 29.400- 29.500
KKS-1 26 Sep 06:08:54 06:11:00 13° 269° (W) 06:13:07 437.445
AIST 2 26 Sep 06:10:29 06:14:10 31° 311° (NW) 06:17:53 435.215
CUSAT 1 26 Sep 06:21:10 06:28:20 36° 68° (ENE) 06:34:35 437.405
RS-15 26 Sep 06:22:35 06:35:03 90° 253° (WSW) 06:47:12 29.354- 29.394
AO-85 26 Sep 06:22:49 06:26:21 25° 45° (NE) 06:29:40 145.980
AIST 1 26 Sep 06:31:38 06:36:01 90° 226° (SW) 06:40:26
BRITE-PL 26 Sep 06:32:27 06:36:46 31° 94° (E) 06:40:46 437.365/2234.400
GOMX 1 26 Sep 06:34:31 06:36:09 12° 88° (E) 06:37:45 467.674
CUBESAT XI-V 26 Sep 06:39:38 06:43:50 32° 264° (W) 06:48:04 437.345
NOAA 15 26 Sep 06:40:25 06:44:01 18° 92° (E) 06:47:34 137.62
PCSat 26 Sep 06:46:40 06:51:45 41° 307° (NW) 06:56:53 145.827
Cubesat XI-IV 26 Sep 06:48:57 06:52:31 18° 91° (E) 06:56:04 437.490
CUTE-I 26 Sep 06:49:44 06:53:23 18° 92° (E) 06:57:01 437.470
STRAND 1 26 Sep 06:52:08 06:55:50 21° 63° (ENE) 06:59:34 437.568
YUBILEINY 26 Sep 07:08:38 07:10:33 11° 307° (NW) 07:12:28 435.215
NOAA 18 26 Sep 07:12:42 07:17:02 24° 94° (E) 07:21:21 137.9125
HORYU 2 26 Sep 07:17:07 07:21:26 51° 288° (WNW) 07:25:45 437.375
Cosmos 2504 26 Sep 07:19:37 07:24:08 17° 296° (WNW) 07:28:36 435.465 / 435.565
DANDE 26 Sep 07:30:24 07:38:34 53° 74° (ENE) 07:46:22 436.750
LilacSat-2 26 Sep 07:36:18 07:40:03 52° 99° (E) 07:43:48 437.200
AO-7 26 Sep 07:58:31 08:03:10 17° 314° (NW) 08:07:50 29.400- 29.500
CUSAT 1 26 Sep 08:03:06 08:10:33 48° 270° (W) 08:16:56 437.405
AO-85 26 Sep 08:03:07 08:06:49 32° 245° (WSW) 08:10:18 145.980
GOMX 1 26 Sep 08:10:21 08:14:47 59° 286° (WNW) 08:18:56 467.674
BRITE-PL 26 Sep 08:11:00 08:15:09 28° 294° (WNW) 08:19:02 437.365/2234.400
O/OREOS (USA 219) 26 Sep 08:11:08 08:15:25 42° 106° (ESE) 08:19:45 437.305
NOAA 15 26 Sep 08:18:56 08:24:09 58° 288° (WNW) 08:29:19 137.62
Cubesat XI-IV 26 Sep 08:27:42 08:32:58 60° 288° (WNW) 08:38:13 437.490
CUTE-I 26 Sep 08:28:32 08:33:47 58° 289° (WNW) 08:39:02 437.470
STRAND 1 26 Sep 08:29:42 08:34:38 51° 260° (W) 08:39:38 437.568
CINEMA 3 26 Sep 08:31:41 08:35:03 23° 95° (E) 08:38:26 145.822/145.860
RS-15 26 Sep 08:36:52 08:45:53 25° 260° (W) 08:54:45 29.354- 29.394
Cosmos 2499 26 Sep 08:41:46 08:46:43 20° 82° (E) 08:51:35 435.465 / 435.565
DOVE 4 26 Sep 08:41:56 08:46:09 64° 285° (WNW) 08:50:14 437.250
NOAA 18 26 Sep 08:52:41 08:57:54 47° 291° (WNW) 09:03:06 137.9125
PRISM 26 Sep 08:57:55 09:01:37 31° 69° (ENE) 09:05:20 437.425
COMPASS 1 26 Sep 09:03:36 09:06:35 18° 93° (E) 09:09:33 437.405
HO-68 26 Sep 09:12:11 09:19:09 52° 101° (E) 09:26:03 435.675
LilacSat-2 26 Sep 09:12:22 09:13:54 12° 296° (WNW) 09:15:26 437.200
DANDE 26 Sep 09:13:37 09:21:04 37° 273° (W) 09:28:12 436.750
CUTE 1.7 + AOD 2 26 Sep 09:22:15 09:26:32 64° 101° (E) 09:30:47 437.475
CANX-2 26 Sep 09:23:03 09:27:23 76° 102° (ESE) 09:31:41 2200.000
GONETS M04 26 Sep 09:24:34 09:33:05 56° 90° (E) 09:41:39
SEEDS 26 Sep 09:27:28 09:31:38 50° 99° (E) 09:35:46 437.485
TIGRISAT 26 Sep 09:46:40 09:48:38 13° 63° (ENE) 09:50:37 435.000
O/OREOS (USA 219) 26 Sep 09:51:32 09:55:01 21° 305° (NW) 09:58:32 437.305
CUBEBUG 2 26 Sep 09:51:58 09:56:07 49° 100° (E) 10:00:21 437.445
BEESAT 3 26 Sep 09:55:14 09:57:55 17° 43° (NE) 10:00:35 437.485
AAUSAT CUBESAT 2 26 Sep 09:55:48 09:59:57 56° 100° (E) 10:04:03 437.432
FUNcube-1 26 Sep 10:07:23 10:11:07 28° 96° (E) 10:14:54 145.935
CINEMA 3 26 Sep 10:08:37 10:12:12 28° 290° (WNW) 10:15:49 145.822/145.860
UWE-3 26 Sep 10:14:10 10:18:24 57° 100° (E) 10:22:44 435.000/436.395/437.385
UNISAT 6 26 Sep 10:24:27 10:28:19 34° 70° (ENE) 10:32:11 437.425
Cosmos 2499 26 Sep 10:31:57 10:39:05 67° 280° (W) 10:46:08 435.465 / 435.565
PRISM 26 Sep 10:33:42 10:36:57 22° 265° (W) 10:40:13 437.425
COMPASS 1 26 Sep 10:38:21 10:42:16 37° 289° (WNW) 10:46:09 437.405
BEESAT 2 26 Sep 10:46:16 10:49:42 26° 48° (NE) 10:53:06 435.950
ZACube-1 26 Sep 10:47:54 10:52:13 86° 99° (E) 10:56:38 437.345
Oscar 11 26 Sep 10:49:41 10:54:05 86° 104° (ESE) 10:58:26 145.826/435.025
ANTELSAT 26 Sep 10:59:27 11:03:44 84° 76° (ENE) 11:08:01 437.575/2403.000
NANOSAT C BR1 26 Sep 10:59:56 11:00:56 11° 61° (ENE) 11:01:56 145.865
CUTE 1.7 + AOD 2 26 Sep 10:59:57 11:01:50 13° 297° (WNW) 11:03:42 437.475
HO-68 26 Sep 11:00:25 11:06:33 32° 299° (WNW) 11:12:41 435.675
CANX-2 26 Sep 11:01:30 11:02:36 11° 299° (WNW) 11:03:43 2200.000
SEEDS 26 Sep 11:04:25 11:06:55 15° 296° (WNW) 11:09:24 437.485
JAS-2 26 Sep 11:07:20 11:11:57 20° 56° (NE) 11:16:54 435.910
QB50P2 26 Sep 11:19:13 11:22:17 20° 66° (ENE) 11:25:22 145.880/145.840
TIGRISAT 26 Sep 11:20:38 11:24:51 59° 259° (W) 11:29:03 435.000
POLYITAN 1 26 Sep 11:21:28 11:24:32 20° 66° (ENE) 11:27:35 437.675
GONETS M04 26 Sep 11:22:30 11:30:16 34° 291° (WNW) 11:38:07
HUMSAT D 26 Sep 11:25:05 11:29:08 42° 98° (E) 11:33:11 437.325/437.525
CUBEBUG 2 26 Sep 11:29:50 11:32:22 16° 295° (WNW) 11:34:57 437.445
BEESAT 3 26 Sep 11:31:59 11:35:53 55° 241° (WSW) 11:39:45 437.485
DELFI C3 26 Sep 11:32:10 11:36:12 76° 283° (WNW) 11:40:12 145.870
AAUSAT CUBESAT 2 26 Sep 11:32:50 11:34:57 14° 296° (WNW) 11:37:03 437.432
FUNcube-1 26 Sep 11:43:42 11:47:16 26° 291° (WNW) 11:50:55 145.935
UWE-3 26 Sep 11:52:13 11:54:26 14° 296° (WNW) 11:56:39 435.000/436.395/437.385
QB50P1 26 Sep 12:01:01 12:05:06 52° 73° (ENE) 12:09:12 145.935-145.965
DUCHIFAT 1 26 Sep 12:01:03 12:05:02 45° 72° (ENE) 12:09:02 145.980
UNISAT 6 26 Sep 12:01:56 12:05:07 20° 266° (W) 12:08:19 437.425
BUGSAT 1 26 Sep 12:11:46 12:15:07 24° 68° (ENE) 12:18:27 437.445
POPSAT HIP 1 26 Sep 12:14:15 12:18:25 73° 76° (ENE) 12:22:38 437.405
BEESAT 2 26 Sep 12:23:57 12:27:31 31° 245° (WSW) 12:31:03 435.950
PHONESAT 2.4 26 Sep 12:31:06 12:33:36 25° 158° (SSE) 12:36:06 2401.200-2431.200
NANOSAT C BR1 26 Sep 12:31:52 12:36:04 73° 258° (WSW) 12:40:16 145.865
Cosmos 2499 26 Sep 12:32:29 12:33:44 10° 302° (WNW) 12:34:58 435.465 / 435.565
AISAT 26 Sep 12:35:36 12:38:47 19° 93° (E) 12:41:56 437.250
SPROUT 26 Sep 12:43:02 12:44:33 12° 90° (E) 12:46:02 437.525
